Regional Weather Roundup
Issued by NWS Sioux Falls, SD

Home | Current Version | Previous Version | Graphics & Text | Print | Product List | Glossary On
Versions: 1 2 3 4 5 6 7 8 9 10 11 12 13 14 15 16 17 18 19 20 21 22 23 24 25 26 27 28 29 30 31 32 33 34 35 36 37 38 39 40 41 42 43 44 45 46 47 48 49 50
000
ASUS43 KFSD 301710
RWRFSD

WEATHER ROUNDUP FOR SE SOUTH DAKOTA/SW MINNESOTA/NW IOWA
NATIONAL WEATHER SERVICE SIOUX FALLS SD
1200 PM CDT SAT JUL 30 2016

NOTE: "FAIR" INDICATES FEW OR NO CLOUDS BELOW 12,000 FEET WITH NO
SIGNIFICANT WEATHER AND OR OBSTRUCTIONS TO VISIBILITY.


SDZ038>040-050-052>070-301800-
SOUTHEAST SOUTH DAKOTA

CITY           SKY/WX    TMP DP  RH WIND       PRES   REMARKS
BROOKINGS      MOSUNNY   75  59  57 VRB7      30.02F
CHAMBERLAIN    SUNNY     81  66  59 S10       29.95S
HURON          SUNNY     79  58  48 SE13G22   29.96F
MADISON        FAIR      73  63  68 S8        30.03S
MITCHELL       MOSUNNY   80  62  54 SE15      29.98S
SIOUX FALLS    MOSUNNY   76  57  51 VRB3      30.02F
WINNER         FAIR      82  59  45 S17G25    29.95
YANKTON        SUNNY     79  61  53 S8        29.99S
$$

MNZ071-072-080-081-089-090-097-098-301800-
SOUTHWEST MINNESOTA

CITY           SKY/WX    TMP DP  RH WIND       PRES   REMARKS
FAIRMONT       SUNNY     75  54  46 CALM      30.04S
JACKSON        SUNNY     73  52  46 SW3       30.06S
LUVERNE        SUNNY     72  55  56 CALM      30.04F
MARSHALL       MOSUNNY   75  55  49 SE5       30.03F
MONTEVIDEO     MOSUNNY   79  59  50 SE5       30.04F
REDWOOD FALLS  SUNNY     76  54  46 VRB3      30.03S
TRACY          SUNNY     76  57  52 SE3       30.04F
WINDOM         SUNNY     73  54  49 CALM      30.05S
WORTHINGTON    SUNNY     73  52  47 VRB3      30.05F
$$

IAZ001>003-012>014-020>022-031-032-NEZ013-014-SDZ071-301800-
NORTHWEST IOWA

CITY           SKY/WX    TMP DP  RH WIND       PRES   REMARKS
CHEROKEE       MOSUNNY   76  62  59 CALM      30.04S
DENISON        PTSUNNY   75  64  69 E3        30.02S
ESTHERVILLE    MOSUNNY   75  61  61 CALM      30.04F
LE MARS        MOSUNNY   77  61  57 S8        30.03S
SHELDON        MOSUNNY   75  61  60 CALM      30.03S
SIOUX CITY     SUNNY     79  61  53 E8        30.01F
SPENCER        MOSUNNY   76  58  53 NW3       30.04F
STORM LAKE     MOSUNNY   73  63  68 CALM      30.05S
$$

ABBREVIATIONS USED IN REMARKS
   TC - TEMPERATURE IN CELSIUS
  WCI - WIND CHILL INDEX
   HX - HEAT INDEX
  VSB - VISIBILITY





USA.gov is the U.S. government's official web portal to all federal, state and local government web resources and services.